Time,TemperatureF,DewpointF,PressureIn,WindDirection,WindDirectionDegrees,WindSpeedMPH,WindSpeedGustMPH,Humidity,HourlyPrecipIn,Conditions,Clouds,dailyrainin,SoftwareType,DateUTC
2013-05-05 00:02:00,57.0,46.0,30.16,SSE,153,1.0,3.0,66,0.00,,,0.00,,2013-05-05 04:02:00,
2013-05-05 00:12:00,57.0,46.0,30.16,SSE,153,1.0,3.0,66,0.00,,,0.00,,2013-05-05 04:12:00,
2013-05-05 00:23:00,57.0,47.0,30.17,South,175,2.0,4.0,68,0.00,,,0.00,,2013-05-05 04:23:00,
2013-05-05 00:32:00,56.0,46.0,30.18,SSE,148,3.0,6.0,69,0.00,,,0.00,,2013-05-05 04:32:00,
2013-05-05 00:43:00,56.0,46.0,30.18,SSE,148,3.0,6.0,69,0.00,,,0.00,,2013-05-05 04:43:00,
2013-05-05 00:53:00,55.0,46.0,30.18,SSE,163,1.0,5.0,71,0.00,,,0.00,,2013-05-05 04:53:00,
2013-05-05 01:02:00,55.0,46.0,30.19,SSE,155,1.0,4.0,72,0.00,,,0.00,,2013-05-05 05:02:00,
2013-05-05 01:12:00,55.0,46.0,30.19,SSE,155,1.0,4.0,72,0.00,,,0.00,,2013-05-05 05:12:00,
2013-05-05 01:22:00,54.0,46.0,30.19,SSE,163,2.0,4.0,73,0.00,,,0.00,,2013-05-05 05:22:00,
2013-05-05 01:32:00,54.0,46.0,30.18,SSE,153,1.0,5.0,73,0.00,,,0.00,,2013-05-05 05:32:00,
2013-05-05 01:42:00,54.0,46.0,30.18,SSE,153,1.0,5.0,73,0.00,,,0.00,,2013-05-05 05:42:00,
2013-05-05 01:52:00,54.0,46.0,30.18,SSE,153,1.0,5.0,74,0.00,,,0.00,,2013-05-05 05:52:00,
2013-05-05 02:01:00,53.0,45.0,30.18,SSE,154,1.0,3.0,75,0.00,,,0.00,,2013-05-05 06:01:00,
2013-05-05 02:12:00,53.0,45.0,30.18,SSE,154,1.0,3.0,75,0.00,,,0.00,,2013-05-05 06:12:00,
2013-05-05 02:21:00,52.0,45.0,30.17,SSE,154,0.0,2.0,77,0.00,,,0.00,,2013-05-05 06:21:00,
2013-05-05 02:32:00,52.0,45.0,30.17,SSE,153,2.0,4.0,76,0.00,,,0.00,,2013-05-05 06:32:00,
2013-05-05 02:42:00,52.0,45.0,30.17,SSE,153,2.0,4.0,76,0.00,,,0.00,,2013-05-05 06:42:00,
2013-05-05 02:52:00,51.0,44.0,30.17,SSE,153,0.0,3.0,76,0.00,,,0.00,,2013-05-05 06:52:00,
2013-05-05 03:01:00,50.0,43.0,30.17,SSE,153,0.0,2.0,77,0.00,,,0.00,,2013-05-05 07:01:00,
2013-05-05 03:11:00,50.0,43.0,30.17,SSE,153,0.0,2.0,77,0.00,,,0.00,,2013-05-05 07:11:00,
2013-05-05 03:22:00,50.0,43.0,30.18,SSE,153,0.0,2.0,77,0.00,,,0.00,,2013-05-05 07:22:00,
2013-05-05 03:32:00,49.0,43.0,30.18,SSE,153,1.0,2.0,79,0.00,,,0.00,,2013-05-05 07:32:00,
2013-05-05 03:42:00,49.0,43.0,30.18,SSE,153,1.0,2.0,79,0.00,,,0.00,,2013-05-05 07:42:00,
2013-05-05 03:52:00,49.0,43.0,30.18,SSE,153,0.0,3.0,80,0.00,,,0.00,,2013-05-05 07:52:00,
2013-05-05 04:02:00,48.0,43.0,30.18,SSE,153,0.0,0.0,82,0.00,,,0.00,,2013-05-05 08:02:00,
2013-05-05 04:11:00,48.0,43.0,30.18,SSE,153,0.0,0.0,82,0.00,,,0.00,,2013-05-05 08:11:00,
2013-05-05 04:21:00,47.0,42.0,30.19,SSE,153,0.0,1.0,84,0.00,,,0.00,,2013-05-05 08:21:00,
2013-05-05 04:32:00,47.0,43.0,30.19,SSE,153,0.0,0.0,85,0.00,,,0.00,,2013-05-05 08:32:00,
2013-05-05 04:42:00,47.0,43.0,30.19,SSE,153,0.0,0.0,85,0.00,,,0.00,,2013-05-05 08:42:00,
2013-05-05 04:53:00,46.0,42.0,30.19,SSE,153,0.0,0.0,86,0.00,,,0.00,,2013-05-05 08:53:00,
2013-05-05 05:01:00,45.0,41.0,30.19,SSE,153,0.0,0.0,86,0.00,,,0.00,,2013-05-05 09:01:00,
2013-05-05 05:11:00,45.0,41.0,30.19,SSE,153,0.0,0.0,86,0.00,,,0.00,,2013-05-05 09:11:00,
2013-05-05 05:21:00,44.0,40.0,30.19,SSE,153,0.0,0.0,86,0.00,,,0.00,,2013-05-05 09:21:00,
2013-05-05 05:33:00,43.0,39.0,30.20,SSE,153,0.0,0.0,87,0.00,,,0.00,,2013-05-05 09:33:00,
2013-05-05 05:42:00,43.0,39.0,30.20,SSE,153,0.0,0.0,87,0.00,,,0.00,,2013-05-05 09:42:00,
2013-05-05 05:52:00,42.0,38.0,30.20,SSE,153,0.0,0.0,86,0.00,,,0.00,,2013-05-05 09:52:00,
2013-05-05 06:03:00,42.0,38.0,30.20,SSE,153,0.0,0.0,86,0.00,,,0.00,,2013-05-05 10:03:00,
2013-05-05 06:12:00,42.0,38.0,30.20,SSE,153,0.0,0.0,86,0.00,,,0.00,,2013-05-05 10:12:00,
2013-05-05 06:22:00,42.0,38.0,30.20,SSE,153,0.0,0.0,86,0.00,,,0.00,,2013-05-05 10:22:00,
2013-05-05 06:32:00,41.0,37.0,30.21,SSE,153,0.0,0.0,86,0.00,,,0.00,,2013-05-05 10:32:00,
2013-05-05 06:42:00,41.0,37.0,30.21,SSE,153,0.0,0.0,86,0.00,,,0.00,,2013-05-05 10:42:00,
2013-05-05 06:53:00,42.0,39.0,30.20,SSE,153,0.0,2.0,88,0.00,,,0.00,,2013-05-05 10:53:00,
2013-05-05 07:01:00,43.0,40.0,30.20,SSE,153,0.0,2.0,90,0.00,,,0.00,,2013-05-05 11:01:00,
2013-05-05 07:12:00,43.0,40.0,30.20,SSE,153,0.0,2.0,90,0.00,,,0.00,,2013-05-05 11:12:00,
2013-05-05 07:22:00,45.0,42.0,30.21,SSE,153,0.0,2.0,90,0.00,,,0.00,,2013-05-05 11:22:00,
2013-05-05 07:32:00,46.0,43.0,30.22,SSE,153,0.0,2.0,89,0.00,,,0.00,,2013-05-05 11:32:00,
2013-05-05 07:42:00,46.0,43.0,30.22,SSE,153,0.0,2.0,89,0.00,,,0.00,,2013-05-05 11:42:00,
2013-05-05 07:52:00,48.0,44.0,30.22,SSE,153,0.0,2.0,87,0.00,,,0.00,,2013-05-05 11:52:00,
2013-05-05 08:02:00,49.0,44.0,30.21,SSE,153,0.0,2.0,83,0.00,,,0.00,,2013-05-05 12:02:00,
2013-05-05 08:11:00,49.0,44.0,30.21,SSE,153,0.0,2.0,83,0.00,,,0.00,,2013-05-05 12:11:00,
2013-05-05 08:21:00,51.0,44.0,30.21,SSE,153,0.0,4.0,76,0.00,,,0.00,,2013-05-05 12:21:00,
2013-05-05 08:32:00,52.0,44.0,30.21,SSE,153,1.0,3.0,74,0.00,,,0.00,,2013-05-05 12:32:00,
2013-05-05 08:42:00,52.0,44.0,30.21,SSE,153,1.0,3.0,74,0.00,,,0.00,,2013-05-05 12:42:00,
2013-05-05 08:52:00,54.0,45.0,30.21,SSE,153,0.0,2.0,71,0.00,,,0.00,,2013-05-05 12:52:00,
2013-05-05 09:01:00,55.0,45.0,30.21,SSE,153,0.0,4.0,69,0.00,,,0.00,,2013-05-05 13:01:00,
2013-05-05 09:11:00,55.0,45.0,30.21,SSE,153,0.0,4.0,69,0.00,,,0.00,,2013-05-05 13:11:00,
2013-05-05 09:21:00,56.0,43.0,30.21,SSE,152,1.0,3.0,61,0.00,,,0.00,,2013-05-05 13:21:00,
2013-05-05 09:32:00,57.0,40.0,30.21,SSE,153,0.0,3.0,53,0.00,,,0.00,,2013-05-05 13:32:00,
2013-05-05 09:42:00,57.0,40.0,30.21,SSE,153,0.0,3.0,53,0.00,,,0.00,,2013-05-05 13:42:00,
2013-05-05 09:52:00,57.0,39.0,30.21,SSE,153,1.0,5.0,50,0.00,,,0.00,,2013-05-05 13:52:00,
2013-05-05 10:02:00,58.0,39.0,30.20,SSE,153,0.0,4.0,49,0.00,,,0.00,,2013-05-05 14:02:00,
2013-05-05 10:11:00,59.0,39.0,30.20,SSE,152,1.0,3.0,47,0.00,,,0.00,,2013-05-05 14:11:00,
2013-05-05 10:21:00,59.0,39.0,30.20,SSE,152,1.0,3.0,47,0.00,,,0.00,,2013-05-05 14:21:00,
2013-05-05 10:32:00,60.0,41.0,30.20,SSE,153,1.0,4.0,50,0.00,,,0.00,,2013-05-05 14:32:00,
2013-05-05 10:42:00,60.0,41.0,30.20,SSE,153,1.0,4.0,50,0.00,,,0.00,,2013-05-05 14:42:00,
2013-05-05 10:52:00,60.0,40.0,30.20,SSE,150,2.0,4.0,47,0.00,,,0.00,,2013-05-05 14:52:00,
2013-05-05 11:02:00,61.0,41.0,30.19,SE,142,1.0,3.0,48,0.00,,,0.00,,2013-05-05 15:02:00,
2013-05-05 11:11:00,61.0,41.0,30.19,SE,142,1.0,3.0,48,0.00,,,0.00,,2013-05-05 15:11:00,
2013-05-05 11:21:00,61.0,40.0,30.19,SE,143,0.0,3.0,45,0.00,,,0.00,,2013-05-05 15:21:00,
2013-05-05 11:33:00,62.0,41.0,30.19,ESE,120,1.0,3.0,46,0.00,,,0.00,,2013-05-05 15:33:00,
2013-05-05 11:43:00,62.0,41.0,30.19,ESE,120,1.0,3.0,46,0.00,,,0.00,,2013-05-05 15:43:00,
2013-05-05 11:53:00,63.0,42.0,30.18,ESE,120,1.0,3.0,46,0.00,,,0.00,,2013-05-05 15:53:00,
2013-05-05 12:03:00,64.0,40.0,30.17,ESE,119,1.0,4.0,41,0.00,,,0.00,,2013-05-05 16:03:00,
2013-05-05 12:12:00,64.0,40.0,30.17,ESE,119,1.0,4.0,41,0.00,,,0.00,,2013-05-05 16:12:00,
2013-05-05 12:23:00,65.0,41.0,30.16,ESE,120,0.0,3.0,41,0.00,,,0.00,,2013-05-05 16:23:00,
2013-05-05 12:32:00,65.0,39.0,30.16,East,82,0.0,5.0,39,0.00,,,0.00,,2013-05-05 16:32:00,
2013-05-05 12:42:00,65.0,39.0,30.16,East,82,0.0,5.0,39,0.00,,,0.00,,2013-05-05 16:42:00,
2013-05-05 12:53:00,68.0,41.0,30.16,East,82,0.0,2.0,37,0.00,,,0.00,,2013-05-05 16:53:00,
2013-05-05 13:02:00,67.0,36.0,30.15,ENE,69,3.0,5.0,32,0.00,,,0.00,,2013-05-05 17:02:00,
2013-05-05 13:12:00,67.0,36.0,30.15,ENE,69,3.0,5.0,32,0.00,,,0.00,,2013-05-05 17:12:00,
2013-05-05 13:23:00,69.0,39.0,30.14,ENE,69,2.0,3.0,34,0.00,,,0.00,,2013-05-05 17:23:00,
2013-05-05 13:32:00,69.0,41.0,30.14,ENE,69,1.0,4.0,36,0.00,,,0.00,,2013-05-05 17:32:00,
2013-05-05 13:42:00,69.0,41.0,30.14,ENE,69,1.0,4.0,36,0.00,,,0.00,,2013-05-05 17:42:00,
2013-05-05 13:52:00,70.0,39.0,30.14,ENE,70,1.0,3.0,32,0.00,,,0.00,,2013-05-05 17:52:00,
2013-05-05 14:01:00,70.0,39.0,30.14,ENE,70,0.0,3.0,32,0.00,,,0.00,,2013-05-05 18:01:00,
2013-05-05 14:12:00,70.0,39.0,30.14,ENE,70,0.0,3.0,32,0.00,,,0.00,,2013-05-05 18:12:00,
2013-05-05 14:21:00,71.0,40.0,30.13,SE,130,2.0,4.0,32,0.00,,,0.00,,2013-05-05 18:21:00,
2013-05-05 14:32:00,71.0,38.0,30.12,SE,128,1.0,4.0,30,0.00,,,0.00,,2013-05-05 18:32:00,
2013-05-05 14:42:00,71.0,38.0,30.12,SE,128,1.0,4.0,30,0.00,,,0.00,,2013-05-05 18:42:00,
2013-05-05 14:52:00,72.0,40.0,30.12,SSE,151,0.0,4.0,31,0.00,,,0.00,,2013-05-05 18:52:00,
2013-05-05 15:01:00,72.0,38.0,30.12,SE,144,1.0,4.0,29,0.00,,,0.00,,2013-05-05 19:01:00,
2013-05-05 15:11:00,72.0,38.0,30.12,SE,144,1.0,4.0,29,0.00,,,0.00,,2013-05-05 19:11:00,
2013-05-05 15:21:00,74.0,41.0,30.11,SE,143,0.0,3.0,30,0.00,,,0.00,,2013-05-05 19:21:00,
2013-05-05 15:32:00,73.0,36.0,30.10,SE,128,3.0,5.0,26,0.00,,,0.00,,2013-05-05 19:32:00,
2013-05-05 15:42:00,73.0,36.0,30.10,SE,128,3.0,5.0,26,0.00,,,0.00,,2013-05-05 19:42:00,
2013-05-05 15:52:00,74.0,37.0,30.09,South,180,1.0,3.0,26,0.00,,,0.00,,2013-05-05 19:52:00,
2013-05-05 16:01:00,74.0,39.0,30.09,South,181,0.0,4.0,28,0.00,,,0.00,,2013-05-05 20:01:00,
2013-05-05 16:11:00,74.0,39.0,30.09,South,181,0.0,4.0,28,0.00,,,0.00,,2013-05-05 20:11:00,
2013-05-05 16:21:00,74.0,39.0,30.09,South,177,0.0,3.0,28,0.00,,,0.00,,2013-05-05 20:21:00,
2013-05-05 16:32:00,74.0,37.0,30.09,South,176,1.0,3.0,26,0.00,,,0.00,,2013-05-05 20:32:00,
2013-05-05 16:42:00,74.0,37.0,30.09,South,176,1.0,3.0,26,0.00,,,0.00,,2013-05-05 20:42:00,
2013-05-05 16:52:00,73.0,35.0,30.08,South,172,2.0,4.0,25,0.00,,,0.00,,2013-05-05 20:52:00,
2013-05-05 17:02:00,74.0,37.0,30.08,South,176,0.0,4.0,26,0.00,,,0.00,,2013-05-05 21:02:00,
2013-05-05 17:11:00,74.0,37.0,30.08,South,176,0.0,4.0,26,0.00,,,0.00,,2013-05-05 21:11:00,
2013-05-05 17:21:00,74.0,35.0,30.07,South,169,0.0,5.0,24,0.00,,,0.00,,2013-05-05 21:21:00,
2013-05-05 17:33:00,74.0,35.0,30.07,South,169,0.0,2.0,24,0.00,,,0.00,,2013-05-05 21:33:00,
2013-05-05 17:42:00,74.0,35.0,30.07,South,169,0.0,2.0,24,0.00,,,0.00,,2013-05-05 21:42:00,
2013-05-05 17:53:00,74.0,35.0,30.07,South,169,1.0,3.0,24,0.00,,,0.00,,2013-05-05 21:53:00,
2013-05-05 18:02:00,74.0,34.0,30.07,South,169,0.0,1.0,23,0.00,,,0.00,,2013-05-05 22:02:00,
2013-05-05 18:12:00,74.0,34.0,30.07,South,169,0.0,1.0,23,0.00,,,0.00,,2013-05-05 22:12:00,
2013-05-05 18:22:00,74.0,35.0,30.07,South,169,0.0,3.0,24,0.00,,,0.00,,2013-05-05 22:22:00,
2013-05-05 18:33:00,73.0,35.0,30.07,South,169,0.0,3.0,25,0.00,,,0.00,,2013-05-05 22:33:00,
2013-05-05 18:42:00,73.0,35.0,30.07,South,169,0.0,3.0,25,0.00,,,0.00,,2013-05-05 22:42:00,
2013-05-05 18:52:00,72.0,34.0,30.07,South,169,0.0,2.0,25,0.00,,,0.00,,2013-05-05 22:52:00,
2013-05-05 19:02:00,71.0,34.0,30.07,South,169,0.0,2.0,26,0.00,,,0.00,,2013-05-05 23:02:00,
2013-05-05 19:11:00,71.0,34.0,30.07,South,169,0.0,2.0,26,0.00,,,0.00,,2013-05-05 23:11:00,
2013-05-05 19:21:00,70.0,38.0,30.08,South,169,0.0,0.0,31,0.00,,,0.00,,2013-05-05 23:21:00,
2013-05-05 19:32:00,66.0,36.0,30.08,South,169,0.0,2.0,33,0.00,,,0.00,,2013-05-05 23:32:00,
2013-05-05 19:42:00,66.0,36.0,30.08,South,169,0.0,2.0,33,0.00,,,0.00,,2013-05-05 23:42:00,
2013-05-05 19:52:00,64.0,40.0,30.08,South,169,0.0,1.0,42,0.00,,,0.00,,2013-05-05 23:52:00,
2013-05-05 20:01:00,63.0,40.0,30.08,South,169,0.0,2.0,42,0.00,,,0.00,,2013-05-06 00:01:00,
2013-05-05 20:11:00,63.0,40.0,30.08,South,169,0.0,2.0,42,0.00,,,0.00,,2013-05-06 00:11:00,
2013-05-05 20:21:00,62.0,36.0,30.08,South,169,0.0,2.0,38,0.00,,,0.00,,2013-05-06 00:21:00,
2013-05-05 20:32:00,61.0,37.0,30.09,South,169,0.0,0.0,41,0.00,,,0.00,,2013-05-06 00:32:00,
2013-05-05 20:41:00,61.0,37.0,30.09,South,169,0.0,0.0,41,0.00,,,0.00,,2013-05-06 00:41:00,
2013-05-05 20:52:00,60.0,37.0,30.09,South,169,0.0,1.0,42,0.00,,,0.00,,2013-05-06 00:52:00,
2013-05-05 21:01:00,58.0,36.0,30.10,South,169,1.0,2.0,43,0.00,,,0.00,,2013-05-06 01:01:00,
2013-05-05 21:11:00,58.0,36.0,30.10,South,169,1.0,2.0,43,0.00,,,0.00,,2013-05-06 01:11:00,
2013-05-05 21:21:00,58.0,37.0,30.11,South,169,0.0,1.0,46,0.00,,,0.00,,2013-05-06 01:21:00,
2013-05-05 21:31:00,57.0,38.0,30.11,South,169,0.0,2.0,49,0.00,,,0.00,,2013-05-06 01:31:00,
2013-05-05 21:42:00,57.0,38.0,30.11,South,169,0.0,2.0,49,0.00,,,0.00,,2013-05-06 01:42:00,
2013-05-05 21:52:00,57.0,37.0,30.11,South,169,0.0,2.0,47,0.00,,,0.00,,2013-05-06 01:52:00,
2013-05-05 22:02:00,59.0,38.0,30.12,South,169,0.0,2.0,46,0.00,,,0.00,,2013-05-06 02:02:00,
2013-05-05 22:12:00,59.0,38.0,30.12,South,169,0.0,2.0,46,0.00,,,0.00,,2013-05-06 02:12:00,
2013-05-05 22:21:00,59.0,41.0,30.12,South,169,1.0,3.0,51,0.00,,,0.00,,2013-05-06 02:21:00,
2013-05-05 22:32:00,59.0,42.0,30.12,South,171,2.0,4.0,53,0.00,,,0.00,,2013-05-06 02:32:00,
2013-05-05 22:42:00,59.0,42.0,30.12,South,171,2.0,4.0,53,0.00,,,0.00,,2013-05-06 02:42:00,
2013-05-05 22:52:00,58.0,42.0,30.12,South,171,1.0,4.0,55,0.00,,,0.00,,2013-05-06 02:52:00,
2013-05-05 23:02:00,58.0,42.0,30.12,South,174,2.0,5.0,56,0.00,,,0.00,,2013-05-06 03:02:00,
2013-05-05 23:11:00,58.0,42.0,30.12,South,174,2.0,5.0,56,0.00,,,0.00,,2013-05-06 03:11:00,
2013-05-05 23:22:00,58.0,43.0,30.12,South,175,2.0,4.0,57,0.00,,,0.00,,2013-05-06 03:22:00,
2013-05-05 23:33:00,57.0,43.0,30.12,South,175,0.0,3.0,59,0.00,,,0.00,,2013-05-06 03:33:00,
2013-05-05 23:42:00,57.0,43.0,30.12,South,175,0.0,3.0,59,0.00,,,0.00,,2013-05-06 03:42:00,
2013-05-05 23:52:00,56.0,44.0,30.12,South,175,1.0,3.0,63,0.00,,,0.00,,2013-05-06 03:52:00,